Date,TemperatureHighF,TemperatureAvgF,TemperatureLowF,DewpointHighF,DewpointAvgF,DewpointLowF,HumidityHigh,HumidityAvg,HumidityLow,PressureMaxIn,PressureMinIn,WindSpeedMaxMPH,WindSpeedAvgMPH,GustSpeedMaxMPH,PrecipitationSumIn
2013-7-1,80,68,64,69,64,61,95,89,62,29.88,29.76,2,0,4,0.02
2013-7-2,66,65,64,64,63,62,96,94,94,29.93,29.86,1,0,3,0.00
2013-7-3,81,70,65,69,65,64,94,86,60,30.07,29.92,4,0,11,0.02
2013-7-4,71,69,67,70,68,66,96,95,94,30.11,30.03,2,0,5,0.11
2013-7-5,80,72,66,72,68,65,96,89,75,30.10,30.04,2,0,9,0.02
2013-7-6,74,70,66,68,67,65,96,91,80,30.09,30.04,2,0,6,0.01
2013-7-7,85,74,66,71,67,65,96,81,58,30.09,30.01,2,0,8,0.00
2013-7-8,89,77,66,74,70,65,96,80,56,30.12,30.01,3,0,9,0.00
2013-7-9,90,82,74,77,73,71,91,77,59,30.07,29.95,2,0,11,0.00
2013-7-10,89,78,71,80,73,68,93,84,66,29.97,29.82,4,1,11,0.05
2013-7-11,83,77,69,70,65,60,94,68,49,29.96,29.89,2,0,5,0.00
2013-7-12,82,72,60,62,59,56,93,65,44,30.05,29.97,2,0,8,0.00
2013-7-13,84,73,63,70,63,60,89,72,57,30.07,29.99,2,0,10,0.00
2013-7-14,90,78,67,76,70,64,95,78,55,30.15,30.05,3,0,14,0.15
2013-7-15,90,80,71,74,72,70,96,78,54,30.25,30.15,3,0,9,0.00
2013-7-16,91,81,71,76,73,70,94,76,55,30.29,30.20,1,0,6,0.00
2013-7-17,94,82,73,78,74,71,94,80,51,30.28,30.14,2,0,8,0.03
2013-7-18,92,82,75,79,76,73,94,81,59,30.17,29.99,3,0,8,0.03
2013-7-19,91,82,73,77,73,69,90,75,56,30.02,29.88,2,1,9,0.00
2013-7-20,90,81,74,76,73,69,91,77,57,29.91,29.82,3,1,11,0.03
2013-7-21,89,78,72,75,71,65,94,79,55,29.94,29.82,2,0,7,0.02
2013-7-22,81,75,71,75,71,69,95,90,78,29.89,29.75,2,0,8,1.26
2013-7-23,89,78,70,78,73,69,95,83,65,29.83,29.70,3,0,9,0.00
2013-7-24,79,72,64,70,62,57,83,70,54,29.94,29.78,1,0,5,0.00
2013-7-25,80,71,61,63,60,57,88,69,49,30.05,29.94,1,0,5,0.00
2013-7-26,82,71,60,66,62,58,94,74,54,30.06,29.95,2,0,7,0.00
2013-7-27,80,71,66,68,64,56,92,79,61,29.95,29.84,2,0,9,0.03
2013-7-28,77,66,53,57,53,50,91,66,43,30.05,29.92,1,0,7,0.00
2013-7-29,82,68,55,64,58,53,93,72,47,30.15,30.05,2,0,7,0.00
2013-7-30,80,69,62,67,62,60,92,80,60,30.18,30.11,3,0,9,0.00
2013-7-31,76,72,68,70,68,65,93,86,79,30.04,29.92,2,0,6,0.00